Location: Cucq
(50.4773°N, 1.6202°E)
Time: 06:47:07
(UTC+00:00)

Cosmos 1726 - Pass Details

Date: 07 August 2020
Orbit: 482 x 498 km, 82.5° (Epoch: 26 September)

Event Time Altitude Azimuth Distance (km) Brightness Sun altitude
Exits shadow 03:37:54 - 203° (SSW) 1,907 4.5 -7.9°
Reaches altitude 10° 03:38:26 10° 204° (SSW) 1,684 4.3 -7.8°
Maximum altitude 03:42:03 54° 283° (WNW) 602 2.3 -7.3°
Drops below altitude 10° 03:45:42 10° 2° (N) 1,690 5.4 -6.9°
Sets 03:47:51 0° 7° (N) 2,574 6.4 -6.6°
